• In Romania
  • List of Countries
  • For 7 days
  • Water Temperature
  • Satellite Maps
  • Weather Map
  • Weather Widgets
  • user-avatar
    Login

    Hourly Weather Wiktoria

    Today, 23 May, Tuesday

    Time Temperature Precipitation Wind Pressure Humidity
    00:00 +12°C° 0 mm 1 mps 753 mmHg 79%
    01:00 +12°C° 0 mm 1 mps 753 mmHg 79%
    02:00 +11°C° 0 mm 1 mps 752 mmHg 81%
    03:00 +11°C° 0 mm 1 mps 752 mmHg 83%
    04:00 +12°C° 0 mm 2 mps 752 mmHg 80%
    05:00 +12°C° 0.1 mm 2 mps 752 mmHg 83%
    06:00 +12°C° 0.1 mm 2 mps 752 mmHg 86%
    07:00 +12°C° 0.1 mm 1 mps 752 mmHg 89%
    08:00 +13°C° 0.2 mm 1 mps 752 mmHg 87%
    09:00 +14°C° 0.2 mm 1 mps 752 mmHg 85%
    10:00 +15°C° 0 mm 2 mps 752 mmHg 76%
    11:00 +16°C° 0.1 mm 2 mps 751 mmHg 72%
    12:00 +17°C° 0.1 mm 2 mps 751 mmHg 68%
    13:00 +18°C° 0.1 mm 2 mps 750 mmHg 64%
    14:00 +18°C° 0.1 mm 2 mps 750 mmHg 66%
    15:00 +19°C° 0.1 mm 2 mps 749 mmHg 67%
    16:00 +20°C° 0.1 mm 1 mps 749 mmHg 68%
    17:00 +18°C° 0.2 mm 1 mps 749 mmHg 77%
    18:00 +15°C° 0.2 mm 1 mps 749 mmHg 87%
    19:00 +13°C° 0.2 mm 1 mps 749 mmHg 96%
    20:00 +12°C° 0.5 mm 1 mps 749 mmHg 96%
    21:00 +12°C° 0.5 mm 1 mps 749 mmHg 97%
    22:00 +11°C° 0.5 mm 1 mps 749 mmHg 98%
    23:00 +11°C° 0.3 mm 1 mps 749 mmHg 98%

    Tomorrow, 24 May, Wednesday

    Time Temperature Precipitation Wind Pressure Humidity
    00:00 +10°C° 0.3 mm 0 mps 749 mmHg 98%
    01:00 +10°C° 0.3 mm 0 mps 749 mmHg 98%
    02:00 +10°C° 0 mm 0 mps 749 mmHg 97%
    03:00 +11°C° 0 mm 1 mps 749 mmHg 97%
    04:00 +11°C° 0 mm 1 mps 749 mmHg 97%
    05:00 +10°C° 0 mm 1 mps 749 mmHg 97%
    06:00 +10°C° 0 mm 1 mps 750 mmHg 97%
    07:00 +9°C° 0 mm 1 mps 750 mmHg 97%
    08:00 +11°C° 0 mm 1 mps 750 mmHg 94%
    09:00 +12°C° 0 mm 1 mps 751 mmHg 90%
    10:00 +13°C° 0 mm 2 mps 751 mmHg 87%
    11:00 +13°C° 0 mm 2 mps 751 mmHg 81%
    12:00 +14°C° 0 mm 2 mps 751 mmHg 76%
    13:00 +15°C° 0 mm 2 mps 751 mmHg 70%
    14:00 +15°C° 0 mm 2 mps 752 mmHg 68%
    15:00 +15°C° 0 mm 1 mps 752 mmHg 66%
    16:00 +15°C° 0 mm 1 mps 752 mmHg 65%
    17:00 +13°C° 0 mm 1 mps 753 mmHg 71%
    18:00 +11°C° 0 mm 1 mps 753 mmHg 78%
    19:00 +10°C° 0 mm 1 mps 753 mmHg 84%
    20:00 +9°C° 0 mm 1 mps 754 mmHg 86%
    21:00 +9°C° 0 mm 1 mps 754 mmHg 87%
    22:00 +9°C° 0 mm 1 mps 754 mmHg 89%
    23:00 +7°C° 0 mm 0 mps 754 mmHg 92%

    Day after tomorrow, 25 May, Thursday

    Time Temperature Precipitation Wind Pressure Humidity
    00:00 +6°C° 0 mm 0 mps 754 mmHg 95%
    01:00 +6°C° 0 mm 0 mps 754 mmHg 98%
    02:00 +5°C° 0 mm 0 mps 754 mmHg 98%
    03:00 +5°C° 0 mm 0 mps 754 mmHg 98%
    04:00 +5°C° 0 mm 0 mps 754 mmHg 99%
    05:00 +5°C° 0 mm 0 mps 754 mmHg 99%
    06:00 +5°C° 0 mm 0 mps 755 mmHg 99%
    07:00 +5°C° 0 mm 0 mps 755 mmHg 99%
    08:00 +7°C° 0 mm 0 mps 755 mmHg 90%
    09:00 +10°C° 0 mm 0 mps 756 mmHg 81%
    10:00 +12°C° 0 mm 0 mps 756 mmHg 72%
    11:00 +14°C° 0 mm 1 mps 755 mmHg 69%
    12:00 +15°C° 0 mm 1 mps 755 mmHg 66%
    13:00 +16°C° 0 mm 1 mps 754 mmHg 63%
    14:00 +16°C° 0 mm 1 mps 754 mmHg 66%
    15:00 +15°C° 0 mm 1 mps 754 mmHg 69%
    16:00 +15°C° 0 mm 1 mps 754 mmHg 72%
    17:00 +13°C° 0 mm 1 mps 754 mmHg 80%
    18:00 +11°C° 0 mm 1 mps 754 mmHg 88%
    19:00 +10°C° 0 mm 1 mps 755 mmHg 96%
    20:00 +10°C° 0 mm 1 mps 755 mmHg 93%
    21:00 +11°C° 0 mm 1 mps 755 mmHg 90%
    22:00 +12°C° 0 mm 1 mps 755 mmHg 87%
    23:00 +11°C° 0 mm 0 mps 755 mmHg 87%

    26 May, Friday

    Time Temperature Precipitation Wind Pressure Humidity
    00:00 +11°C° 0 mm 0 mps 755 mmHg 87%
    01:00 +11°C° 0 mm 0 mps 755 mmHg 87%
    02:00 +11°C° 0 mm 0 mps 755 mmHg 88%
    03:00 +10°C° 0 mm 0 mps 755 mmHg 89%
    04:00 +10°C° 0 mm 0 mps 754 mmHg 91%
    05:00 +10°C° 0 mm 0 mps 755 mmHg 92%
    06:00 +10°C° 0 mm 0 mps 755 mmHg 92%
    07:00 +9°C° 0 mm 0 mps 755 mmHg 93%
    08:00 +11°C° 0 mm 0 mps 755 mmHg 87%
    09:00 +12°C° 0 mm 0 mps 756 mmHg 81%
    10:00 +14°C° 0 mm 0 mps 756 mmHg 75%
    11:00 +16°C° 0 mm 1 mps 755 mmHg 70%
    12:00 +18°C° 0 mm 1 mps 755 mmHg 65%
    13:00 +20°C° 0 mm 1 mps 754 mmHg 60%
    14:00 +19°C° 0 mm 1 mps 754 mmHg 62%
    15:00 +19°C° 0 mm 1 mps 753 mmHg 65%
    16:00 +17°C° 0 mm 0 mps 753 mmHg 67%
    17:00 +16°C° 0 mm 1 mps 753 mmHg 75%
    18:00 +14°C° 0 mm 1 mps 753 mmHg 83%
    19:00 +12°C° 0 mm 1 mps 753 mmHg 90%
    20:00 +12°C° 0 mm 1 mps 753 mmHg 91%
    21:00 +12°C° 0 mm 1 mps 754 mmHg 92%
    22:00 +12°C° 0 mm 1 mps 754 mmHg 93%
    23:00 +11°C° 0 mm 1 mps 754 mmHg 93%

    27 May, Saturday

    Time Temperature Precipitation Wind Pressure Humidity
    00:00 +11°C° 0 mm 1 mps 753 mmHg 93%
    01:00 +11°C° 0 mm 1 mps 753 mmHg 93%
    02:00 +11°C° 0 mm 1 mps 753 mmHg 93%
    03:00 +11°C° 0 mm 1 mps 752 mmHg 92%
    04:00 +11°C° 0 mm 1 mps 752 mmHg 91%
    05:00 +11°C° 0 mm 1 mps 752 mmHg 93%
    06:00 +11°C° 0 mm 1 mps 752 mmHg 95%
    07:00 +10°C° 0 mm 1 mps 752 mmHg 96%
    08:00 +11°C° 0 mm 1 mps 752 mmHg 91%
    09:00 +12°C° 0 mm 2 mps 752 mmHg 86%
    10:00 +13°C° 0 mm 2 mps 752 mmHg 81%
    11:00 +15°C° 0 mm 2 mps 751 mmHg 74%
    12:00 +16°C° 0 mm 2 mps 751 mmHg 67%
    13:00 +17°C° 0 mm 3 mps 750 mmHg 60%
    14:00 +17°C° 0 mm 2 mps 749 mmHg 60%
    15:00 +17°C° 0 mm 2 mps 749 mmHg 59%
    16:00 +17°C° 0 mm 2 mps 748 mmHg 59%
    17:00 +16°C° 0 mm 2 mps 748 mmHg 63%
    18:00 +15°C° 0 mm 2 mps 748 mmHg 67%
    19:00 +14°C° 0 mm 2 mps 748 mmHg 71%
    20:00 +14°C° 0 mm 2 mps 748 mmHg 71%
    21:00 +14°C° 0 mm 2 mps 748 mmHg 71%
    22:00 +14°C° 0 mm 2 mps 748 mmHg 71%
    23:00 +13°C° 0 mm 2 mps 747 mmHg 72%

    28 May, Sunday

    Time Temperature Precipitation Wind Pressure Humidity
    00:00 +13°C° 0 mm 2 mps 747 mmHg 72%
    01:00 +13°C° 0 mm 2 mps 747 mmHg 73%
    02:00 +12°C° 0.1 mm 2 mps 747 mmHg 75%
    03:00 +12°C° 0.1 mm 1 mps 747 mmHg 76%
    04:00 +12°C° 0.1 mm 1 mps 747 mmHg 78%
    05:00 +12°C° 0 mm 1 mps 748 mmHg 80%
    06:00 +11°C° 0 mm 1 mps 748 mmHg 82%
    07:00 +11°C° 0 mm 1 mps 748 mmHg 84%
    08:00 +12°C° 0 mm 1 mps 748 mmHg 81%
    09:00 +13°C° 0 mm 1 mps 749 mmHg 77%
    10:00 +14°C° 0 mm 2 mps 749 mmHg 74%
    11:00 +14°C° 0.1 mm 2 mps 748 mmHg 71%
    12:00 +15°C° 0.1 mm 2 mps 748 mmHg 67%
    13:00 +14°C° 0.1 mm 3 mps 747 mmHg 64%
    14:00 +15°C° 0.2 mm 2 mps 747 mmHg 66%
    15:00 +15°C° 0.2 mm 2 mps 747 mmHg 69%
    16:00 +14°C° 0.2 mm 2 mps 747 mmHg 72%
    17:00 +13°C° 0.3 mm 2 mps 748 mmHg 78%
    18:00 +12°C° 0.3 mm 2 mps 748 mmHg 84%
    19:00 +10°C° 0.3 mm 2 mps 749 mmHg 90%
    20:00 +11°C° 0.1 mm 1 mps 749 mmHg 92%
    21:00 +10°C° 0.1 mm 1 mps 749 mmHg 93%
    22:00 +10°C° 0.1 mm 1 mps 750 mmHg 95%
    23:00 +9°C° 0 mm 1 mps 750 mmHg 95%
    Show more